Time,TemperatureF,DewpointF,PressureIn,WindDirection,WindDirectionDegrees,WindSpeedMPH,WindSpeedGustMPH,Humidity,HourlyPrecipIn,Conditions,Clouds,dailyrainin,SoftwareType,DateUTC
2013-04-21 00:01:00,61.3,14.7,29.88,ESE,112,8.0,10.5,16,0.00,,,-99.99,FreeWX-Wi 1.01,2013-04-21 04:01:00,
2013-04-21 00:06:00,61.0,14.5,29.94,ESE,112,7.0,8.7,16,0.00,,,-99.99,FreeWX-Wi 1.01,2013-04-21 04:06:00,
2013-04-21 00:11:00,60.8,14.4,29.94,ESE,110,7.0,10.1,16,0.00,,,-99.99,FreeWX-Wi 1.01,2013-04-21 04:11:00,
2013-04-21 00:16:00,60.4,15.4,29.94,ESE,110,7.0,10.1,17,0.00,,,-99.99,FreeWX-Wi 1.01,2013-04-21 04:16:00,
2013-04-21 00:21:00,60.3,15.3,29.94,ESE,110,7.0,10.1,17,0.00,,,-99.99,FreeWX-Wi 1.01,2013-04-21 04:21:00,
2013-04-21 00:26:00,60.1,15.1,29.94,ESE,111,7.0,8.7,17,0.00,,,-99.99,FreeWX-Wi 1.01,2013-04-21 04:26:00,
2013-04-21 00:31:00,59.9,15.1,29.94,ESE,113,7.0,11.0,17,0.00,,,-99.99,FreeWX-Wi 1.01,2013-04-21 04:31:00,
2013-04-21 00:36:00,59.7,14.9,29.94,ESE,114,7.0,10.1,17,0.00,,,-99.99,FreeWX-Wi 1.01,2013-04-21 04:36:00,
2013-04-21 00:41:00,59.5,14.7,29.94,ESE,115,7.0,10.1,17,0.00,,,-99.99,FreeWX-Wi 1.01,2013-04-21 04:41:00,
2013-04-21 00:46:00,59.4,14.5,29.94,ESE,115,7.0,10.5,17,0.00,,,-99.99,FreeWX-Wi 1.01,2013-04-21 04:46:00,
2013-04-21 00:51:00,59.4,14.5,29.94,ESE,117,7.0,12.3,17,0.00,,,-99.99,FreeWX-Wi 1.01,2013-04-21 04:51:00,
2013-04-21 00:56:00,59.2,14.4,29.94,ESE,119,7.0,10.5,17,0.00,,,-99.99,FreeWX-Wi 1.01,2013-04-21 04:56:00,
2013-04-21 01:01:00,59.2,14.4,29.94,ESE,120,8.0,11.0,17,0.00,,,-99.99,FreeWX-Wi 1.01,2013-04-21 05:01:00,
2013-04-21 01:06:00,59.0,14.2,29.94,ESE,121,8.0,10.5,17,0.00,,,-99.99,FreeWX-Wi 1.01,2013-04-21 05:06:00,
2013-04-21 01:11:00,58.8,14.2,29.94,ESE,122,8.0,11.9,17,0.00,,,-99.99,FreeWX-Wi 1.01,2013-04-21 05:11:00,
2013-04-21 01:16:00,58.8,14.2,29.94,ESE,121,7.0,10.5,17,0.00,,,-99.99,FreeWX-Wi 1.01,2013-04-21 05:16:00,
2013-04-21 01:21:00,58.6,14.0,29.94,ESE,120,7.0,8.3,17,0.00,,,-99.99,FreeWX-Wi 1.01,2013-04-21 05:21:00,
2013-04-21 01:26:00,58.5,13.8,29.94,ESE,118,7.0,8.7,17,0.00,,,-99.99,FreeWX-Wi 1.01,2013-04-21 05:26:00,
2013-04-21 01:31:00,58.3,13.6,29.94,ESE,119,6.0,8.1,17,0.00,,,-99.99,FreeWX-Wi 1.01,2013-04-21 05:31:00,
2013-04-21 01:36:00,58.1,13.5,29.94,ESE,116,6.0,8.1,17,0.00,,,-99.99,FreeWX-Wi 1.01,2013-04-21 05:36:00,
2013-04-21 01:41:00,57.7,13.3,29.94,ESE,115,6.0,8.1,17,0.00,,,-99.99,FreeWX-Wi 1.01,2013-04-21 05:41:00,
2013-04-21 01:46:00,57.6,13.1,29.94,ESE,115,5.0,8.1,17,0.00,,,-99.99,FreeWX-Wi 1.01,2013-04-21 05:46:00,
2013-04-21 01:51:00,57.6,13.1,29.94,ESE,116,6.0,8.7,17,0.00,,,-99.99,FreeWX-Wi 1.01,2013-04-21 05:51:00,
2013-04-21 01:56:00,57.4,12.9,29.94,ESE,115,6.0,8.1,17,0.00,,,-99.99,FreeWX-Wi 1.01,2013-04-21 05:56:00,
2013-04-21 02:01:00,57.2,12.7,29.94,ESE,113,6.0,8.3,17,0.00,,,-99.99,FreeWX-Wi 1.01,2013-04-21 06:01:00,
2013-04-21 02:06:00,56.8,12.6,29.94,ESE,113,5.0,5.4,17,0.00,,,-99.99,FreeWX-Wi 1.01,2013-04-21 06:06:00,
2013-04-21 02:11:00,56.5,12.2,29.94,ESE,111,5.0,7.6,17,0.00,,,-99.99,FreeWX-Wi 1.01,2013-04-21 06:11:00,
2013-04-21 02:16:00,55.9,11.8,29.94,ESE,109,5.0,8.3,17,0.00,,,-99.99,FreeWX-Wi 1.01,2013-04-21 06:16:00,
2013-04-21 02:21:00,55.6,11.5,29.94,ESE,104,5.0,8.3,17,0.00,,,-99.99,FreeWX-Wi 1.01,2013-04-21 06:21:00,
2013-04-21 02:26:00,55.2,12.6,29.94,ESE,102,5.0,8.3,18,0.00,,,-99.99,FreeWX-Wi 1.01,2013-04-21 06:26:00,
2013-04-21 02:31:00,55.0,12.4,29.94,East,100,5.0,7.6,18,0.00,,,-99.99,FreeWX-Wi 1.01,2013-04-21 06:31:00,
2013-04-21 02:36:00,54.7,12.0,29.94,East,99,5.0,7.6,18,0.00,,,-99.99,FreeWX-Wi 1.01,2013-04-21 06:36:00,
2013-04-21 02:41:00,54.5,11.8,29.94,East,100,5.0,8.1,18,0.00,,,-99.99,FreeWX-Wi 1.01,2013-04-21 06:41:00,
2013-04-21 02:46:00,54.3,11.7,29.94,ESE,103,5.0,10.1,18,0.00,,,-99.99,FreeWX-Wi 1.01,2013-04-21 06:46:00,
2013-04-21 02:51:00,54.1,11.7,29.94,ESE,105,5.0,7.6,18,0.00,,,-99.99,FreeWX-Wi 1.01,2013-04-21 06:51:00,
2013-04-21 02:56:00,54.1,11.7,29.94,ESE,107,5.0,6.3,18,0.00,,,-99.99,FreeWX-Wi 1.01,2013-04-21 06:56:00,
2013-04-21 03:01:00,54.0,11.5,29.94,ESE,109,5.0,5.8,18,0.00,,,-99.99,FreeWX-Wi 1.01,2013-04-21 07:01:00,
2013-04-21 03:06:00,54.0,11.5,29.94,ESE,111,5.0,8.7,18,0.00,,,-99.99,FreeWX-Wi 1.01,2013-04-21 07:06:00,
2013-04-21 03:11:00,53.8,11.3,29.94,ESE,111,5.0,7.6,18,0.00,,,-99.99,FreeWX-Wi 1.01,2013-04-21 07:11:00,
2013-04-21 03:16:00,53.8,11.3,29.94,ESE,112,5.0,12.3,18,0.00,,,-99.99,FreeWX-Wi 1.01,2013-04-21 07:16:00,
2013-04-21 03:21:00,53.8,11.3,29.94,ESE,112,5.0,8.7,18,0.00,,,-99.99,FreeWX-Wi 1.01,2013-04-21 07:21:00,
2013-04-21 03:26:00,53.8,11.3,29.94,ESE,111,5.0,10.1,18,0.00,,,-99.99,FreeWX-Wi 1.01,2013-04-21 07:26:00,
2013-04-21 03:31:00,53.8,11.3,29.94,ESE,110,5.0,8.7,18,0.00,,,-99.99,FreeWX-Wi 1.01,2013-04-21 07:31:00,
2013-04-21 03:36:00,53.8,11.3,29.94,ESE,108,6.0,11.9,18,0.00,,,-99.99,FreeWX-Wi 1.01,2013-04-21 07:36:00,
2013-04-21 03:41:00,53.8,13.6,29.94,ESE,107,6.0,11.0,20,0.00,,,-99.99,FreeWX-Wi 1.01,2013-04-21 07:41:00,
2013-04-21 03:46:00,53.8,13.6,29.94,ESE,106,6.0,8.7,20,0.00,,,-99.99,FreeWX-Wi 1.01,2013-04-21 07:46:00,
2013-04-21 03:51:00,53.8,13.6,29.94,ESE,106,6.0,12.3,20,0.00,,,-99.99,FreeWX-Wi 1.01,2013-04-21 07:51:00,
2013-04-21 03:56:00,53.6,13.5,29.94,ESE,106,6.0,8.7,20,0.00,,,-99.99,FreeWX-Wi 1.01,2013-04-21 07:56:00,
2013-04-21 04:01:00,53.6,13.5,29.94,ESE,108,6.0,10.5,20,0.00,,,-99.99,FreeWX-Wi 1.01,2013-04-21 08:01:00,
2013-04-21 04:06:00,53.4,16.5,29.94,ESE,109,6.0,10.1,23,0.00,,,-99.99,FreeWX-Wi 1.01,2013-04-21 08:06:00,
2013-04-21 04:11:00,53.4,16.5,29.94,ESE,110,6.0,8.3,23,0.00,,,-99.99,FreeWX-Wi 1.01,2013-04-21 08:11:00,
2013-04-21 04:16:00,53.4,16.5,29.94,ESE,112,6.0,10.1,23,0.00,,,-99.99,FreeWX-Wi 1.01,2013-04-21 08:16:00,
2013-04-21 04:21:00,53.4,19.4,29.94,ESE,114,6.0,10.1,26,0.00,,,-99.99,FreeWX-Wi 1.01,2013-04-21 08:21:00,
2013-04-21 04:26:00,53.2,19.2,29.94,ESE,117,6.0,10.5,26,0.00,,,-99.99,FreeWX-Wi 1.01,2013-04-21 08:26:00,
2013-04-21 04:31:00,53.2,19.2,29.94,ESE,116,6.0,10.1,26,0.00,,,-99.99,FreeWX-Wi 1.01,2013-04-21 08:31:00,
2013-04-21 04:36:00,53.1,19.0,29.94,ESE,117,6.0,8.3,26,0.00,,,-99.99,FreeWX-Wi 1.01,2013-04-21 08:36:00,
2013-04-21 04:41:00,53.1,19.0,29.94,ESE,114,6.0,7.6,26,0.00,,,-99.99,FreeWX-Wi 1.01,2013-04-21 08:41:00,
2013-04-21 04:46:00,52.9,18.9,29.94,ESE,112,6.0,11.0,26,0.00,,,-99.99,FreeWX-Wi 1.01,2013-04-21 08:46:00,
2013-04-21 04:51:00,52.7,19.8,29.94,ESE,111,6.0,11.0,27,0.00,,,-99.99,FreeWX-Wi 1.01,2013-04-21 08:51:00,
2013-04-21 04:56:00,52.7,19.8,29.94,ESE,109,6.0,9.6,27,0.00,,,-99.99,FreeWX-Wi 1.01,2013-04-21 08:56:00,
2013-04-21 05:01:00,52.7,19.8,29.94,ESE,110,6.0,10.1,27,0.00,,,-99.99,FreeWX-Wi 1.01,2013-04-21 09:01:00,
2013-04-21 05:06:00,52.5,19.6,29.94,ESE,110,6.0,10.1,27,0.00,,,-99.99,FreeWX-Wi 1.01,2013-04-21 09:06:00,
2013-04-21 05:11:00,52.5,20.3,29.94,ESE,111,6.0,9.6,28,0.00,,,-99.99,FreeWX-Wi 1.01,2013-04-21 09:11:00,
2013-04-21 05:16:00,52.5,20.3,29.94,ESE,113,6.0,8.1,28,0.00,,,-99.99,FreeWX-Wi 1.01,2013-04-21 09:16:00,
2013-04-21 05:21:00,52.3,21.0,29.94,ESE,112,6.0,8.3,29,0.00,,,-99.99,FreeWX-Wi 1.01,2013-04-21 09:21:00,
2013-04-21 05:26:00,52.3,21.9,29.94,ESE,111,6.0,8.7,30,0.00,,,-99.99,FreeWX-Wi 1.01,2013-04-21 09:26:00,
2013-04-21 05:31:00,52.3,21.9,29.94,ESE,111,6.0,9.2,30,0.00,,,-99.99,FreeWX-Wi 1.01,2013-04-21 09:31:00,
2013-04-21 05:36:00,52.0,22.3,29.94,ESE,109,6.0,8.7,31,0.00,,,-99.99,FreeWX-Wi 1.01,2013-04-21 09:36:00,
2013-04-21 05:41:00,52.0,23.0,29.94,ESE,109,6.0,8.1,32,0.00,,,-99.99,FreeWX-Wi 1.01,2013-04-21 09:41:00,
2013-04-21 05:46:00,51.8,23.5,29.94,ESE,109,5.0,8.1,33,0.00,,,-99.99,FreeWX-Wi 1.01,2013-04-21 09:46:00,
2013-04-21 05:51:00,51.8,23.5,29.94,ESE,107,5.0,8.7,33,0.00,,,-99.99,FreeWX-Wi 1.01,2013-04-21 09:51:00,
2013-04-21 05:56:00,51.6,24.3,29.94,ESE,108,5.0,8.1,34,0.00,,,-99.99,FreeWX-Wi 1.01,2013-04-21 09:56:00,
2013-04-21 06:01:00,51.6,24.8,29.94,ESE,110,5.0,8.1,35,0.00,,,-99.99,FreeWX-Wi 1.01,2013-04-21 10:01:00,
2013-04-21 06:06:00,51.6,25.5,29.94,ESE,112,5.0,6.3,36,0.00,,,-99.99,FreeWX-Wi 1.01,2013-04-21 10:06:00,
2013-04-21 06:11:00,51.4,25.3,29.94,ESE,113,5.0,6.7,36,0.00,,,-99.99,FreeWX-Wi 1.01,2013-04-21 10:11:00,
2013-04-21 06:16:00,51.4,25.3,29.94,ESE,113,4.0,6.3,36,0.00,,,-99.99,FreeWX-Wi 1.01,2013-04-21 10:16:00,
2013-04-21 06:21:00,51.3,25.2,29.94,ESE,115,4.0,8.7,36,0.00,,,-99.99,FreeWX-Wi 1.01,2013-04-21 10:21:00,
2013-04-21 06:26:00,51.3,25.9,29.94,ESE,116,5.0,8.1,37,0.00,,,-99.99,FreeWX-Wi 1.01,2013-04-21 10:26:00,
2013-04-21 06:31:00,51.1,25.7,29.94,ESE,116,5.0,7.6,37,0.00,,,-99.99,FreeWX-Wi 1.01,2013-04-21 10:31:00,
2013-04-21 06:36:00,50.9,25.5,29.94,ESE,115,5.0,6.3,37,0.00,,,-99.99,FreeWX-Wi 1.01,2013-04-21 10:36:00,
2013-04-21 06:41:00,50.7,25.3,29.94,ESE,116,5.0,6.3,37,0.00,,,-99.99,FreeWX-Wi 1.01,2013-04-21 10:41:00,
2013-04-21 06:46:00,50.7,26.1,29.94,ESE,115,5.0,6.3,38,0.00,,,-99.99,FreeWX-Wi 1.01,2013-04-21 10:46:00,
2013-04-21 06:51:00,50.5,25.9,29.94,ESE,114,5.0,8.1,38,0.00,,,-99.99,FreeWX-Wi 1.01,2013-04-21 10:51:00,
2013-04-21 06:56:00,50.5,25.9,29.94,ESE,112,4.0,6.3,38,0.00,,,-99.99,FreeWX-Wi 1.01,2013-04-21 10:56:00,
2013-04-21 07:01:00,50.4,26.4,29.94,ESE,110,4.0,8.1,39,0.00,,,-99.99,FreeWX-Wi 1.01,2013-04-21 11:01:00,
2013-04-21 07:06:00,50.2,26.2,29.94,ESE,107,4.0,7.6,39,0.00,,,-99.99,FreeWX-Wi 1.01,2013-04-21 11:06:00,
2013-04-21 07:11:00,50.2,26.2,29.94,ESE,105,4.0,5.8,39,0.00,,,-99.99,FreeWX-Wi 1.01,2013-04-21 11:11:00,
2013-04-21 07:16:00,50.2,26.2,29.94,ESE,104,4.0,7.6,39,0.00,,,-99.99,FreeWX-Wi 1.01,2013-04-21 11:16:00,
2013-04-21 07:21:00,50.0,26.6,30.00,ESE,103,4.0,5.8,40,0.00,,,-99.99,FreeWX-Wi 1.01,2013-04-21 11:21:00,
2013-04-21 07:26:00,49.8,27.1,30.00,ESE,103,4.0,6.3,41,0.00,,,-99.99,FreeWX-Wi 1.01,2013-04-21 11:26:00,
2013-04-21 07:31:00,49.6,27.0,30.00,ESE,103,4.0,7.6,41,0.00,,,-99.99,FreeWX-Wi 1.01,2013-04-21 11:31:00,
2013-04-21 07:36:00,49.6,27.0,30.00,ESE,103,4.0,7.6,41,0.00,,,-99.99,FreeWX-Wi 1.01,2013-04-21 11:36:00,
2013-04-21 07:41:00,49.5,27.3,30.00,ESE,103,4.0,6.3,42,0.00,,,-99.99,FreeWX-Wi 1.01,2013-04-21 11:41:00,
2013-04-21 07:46:00,49.3,27.1,30.00,ESE,102,4.0,5.8,42,0.00,,,-99.99,FreeWX-Wi 1.01,2013-04-21 11:46:00,
2013-04-21 07:51:00,49.1,27.0,30.00,ESE,102,4.0,8.1,42,0.00,,,-99.99,FreeWX-Wi 1.01,2013-04-21 11:51:00,
2013-04-21 07:56:00,48.9,27.5,30.00,East,100,4.0,6.3,43,0.00,,,-99.99,FreeWX-Wi 1.01,2013-04-21 11:56:00,
2013-04-21 08:01:00,48.9,27.5,30.00,East,101,4.0,5.4,43,0.00,,,-99.99,FreeWX-Wi 1.01,2013-04-21 12:01:00,
2013-04-21 08:06:00,48.7,27.3,30.00,East,101,4.0,5.4,43,0.00,,,-99.99,FreeWX-Wi 1.01,2013-04-21 12:06:00,
2013-04-21 08:11:00,48.7,27.3,30.00,ESE,102,4.0,6.3,43,0.00,,,-99.99,FreeWX-Wi 1.01,2013-04-21 12:11:00,
2013-04-21 08:16:00,48.7,27.9,30.00,ESE,104,4.0,5.4,44,0.00,,,-99.99,FreeWX-Wi 1.01,2013-04-21 12:16:00,
2013-04-21 08:21:00,48.7,27.9,30.00,ESE,106,4.0,6.3,44,0.00,,,-99.99,FreeWX-Wi 1.01,2013-04-21 12:21:00,
2013-04-21 08:26:00,48.9,28.0,30.00,ESE,109,4.0,5.4,44,0.00,,,-99.99,FreeWX-Wi 1.01,2013-04-21 12:26:00,
2013-04-21 08:31:00,49.1,28.8,30.00,ESE,111,3.0,5.8,45,0.00,,,-99.99,FreeWX-Wi 1.01,2013-04-21 12:31:00,
2013-04-21 08:36:00,49.3,28.8,30.00,ESE,113,3.0,5.4,45,0.00,,,-99.99,FreeWX-Wi 1.01,2013-04-21 12:36:00,
2013-04-21 08:41:00,49.5,28.9,30.00,ESE,115,3.0,5.8,45,0.00,,,-99.99,FreeWX-Wi 1.01,2013-04-21 12:41:00,
2013-04-21 08:46:00,49.6,29.1,30.00,ESE,115,3.0,5.8,45,0.00,,,-99.99,FreeWX-Wi 1.01,2013-04-21 12:46:00,
2013-04-21 08:51:00,49.8,29.8,30.00,ESE,116,3.0,5.8,46,0.00,,,-99.99,FreeWX-Wi 1.01,2013-04-21 12:51:00,
2013-04-21 08:56:00,50.2,29.7,30.00,ESE,117,3.0,5.4,45,0.00,,,-99.99,FreeWX-Wi 1.01,2013-04-21 12:56:00,
2013-04-21 09:01:00,50.4,30.4,30.00,ESE,119,4.0,6.3,46,0.00,,,-99.99,FreeWX-Wi 1.01,2013-04-21 13:01:00,
2013-04-21 09:06:00,50.7,30.7,30.00,ESE,121,4.0,8.1,46,0.00,,,-99.99,FreeWX-Wi 1.01,2013-04-21 13:06:00,
2013-04-21 09:11:00,51.3,31.3,30.00,ESE,122,4.0,8.7,46,0.00,,,-99.99,FreeWX-Wi 1.01,2013-04-21 13:11:00,
2013-04-21 09:16:00,51.6,31.5,30.00,SE,124,5.0,8.3,46,0.00,,,-99.99,FreeWX-Wi 1.01,2013-04-21 13:16:00,
2013-04-21 09:21:00,52.0,31.8,30.00,SE,125,6.0,8.3,46,0.00,,,-99.99,FreeWX-Wi 1.01,2013-04-21 13:21:00,
2013-04-21 09:26:00,52.5,32.4,30.00,SE,125,6.0,8.3,46,0.00,,,-99.99,FreeWX-Wi 1.01,2013-04-21 13:26:00,
2013-04-21 09:31:00,52.9,32.2,30.00,SE,124,6.0,8.3,45,0.00,,,-99.99,FreeWX-Wi 1.01,2013-04-21 13:31:00,
2013-04-21 09:36:00,53.4,32.5,30.00,SE,125,6.0,10.5,45,0.00,,,-99.99,FreeWX-Wi 1.01,2013-04-21 13:36:00,
2013-04-21 09:41:00,54.0,32.5,30.00,SE,125,6.0,10.5,44,0.00,,,-99.99,FreeWX-Wi 1.01,2013-04-21 13:41:00,
2013-04-21 09:46:00,54.7,33.3,30.00,SE,126,7.0,11.0,44,0.00,,,-99.99,FreeWX-Wi 1.01,2013-04-21 13:46:00,
2013-04-21 09:51:00,55.4,32.7,30.00,SE,127,7.0,12.8,42,0.00,,,-99.99,FreeWX-Wi 1.01,2013-04-21 13:51:00,
2013-04-21 09:56:00,56.3,32.9,30.00,SE,129,7.0,10.5,41,0.00,,,-99.99,FreeWX-Wi 1.01,2013-04-21 13:56:00,
2013-04-21 10:01:00,57.7,34.2,30.00,SE,131,8.0,11.0,41,0.00,,,-99.99,FreeWX-Wi 1.01,2013-04-21 14:01:00,
2013-04-21 10:06:00,59.0,34.2,30.00,SE,133,8.0,10.1,39,0.00,,,-99.99,FreeWX-Wi 1.01,2013-04-21 14:06:00,
2013-04-21 10:11:00,60.1,33.8,30.00,SE,134,8.0,11.0,37,0.00,,,-99.99,FreeWX-Wi 1.01,2013-04-21 14:11:00,
2013-04-21 10:16:00,60.6,32.9,30.00,SE,135,7.0,8.7,35,0.00,,,-99.99,FreeWX-Wi 1.01,2013-04-21 14:16:00,
2013-04-21 10:21:00,61.7,33.1,30.00,SE,136,7.0,10.5,34,0.00,,,-99.99,FreeWX-Wi 1.01,2013-04-21 14:21:00,
2013-04-21 10:26:00,63.0,33.4,30.00,SE,139,7.0,11.0,33,0.00,,,-99.99,FreeWX-Wi 1.01,2013-04-21 14:26:00,
2013-04-21 10:31:00,63.7,32.5,30.00,SE,141,7.0,15.4,31,0.00,,,-99.99,FreeWX-Wi 1.01,2013-04-21 14:31:00,
2013-04-21 10:36:00,64.6,30.7,30.00,SE,140,8.0,12.8,28,0.00,,,-99.99,FreeWX-Wi 1.01,2013-04-21 14:36:00,
2013-04-21 10:41:00,65.5,31.5,30.00,SE,142,7.0,10.5,28,0.00,,,-99.99,FreeWX-Wi 1.01,2013-04-21 14:41:00,
2013-04-21 10:46:00,66.4,30.4,30.00,SE,142,8.0,15.0,26,0.00,,,-99.99,FreeWX-Wi 1.01,2013-04-21 14:46:00,
2013-04-21 10:51:00,67.1,30.0,30.00,SE,142,8.0,11.0,25,0.00,,,-99.99,FreeWX-Wi 1.01,2013-04-21 14:51:00,
2013-04-21 10:56:00,67.6,30.6,30.00,SE,142,7.0,8.7,25,0.00,,,-99.99,FreeWX-Wi 1.01,2013-04-21 14:56:00,
2013-04-21 11:01:00,68.2,30.0,30.00,SE,142,7.0,11.4,24,0.00,,,-99.99,FreeWX-Wi 1.01,2013-04-21 15:01:00,
2013-04-21 11:06:00,68.5,30.4,30.00,SE,145,7.0,15.0,24,0.00,,,-99.99,FreeWX-Wi 1.01,2013-04-21 15:06:00,
2013-04-21 11:11:00,68.7,29.5,30.00,SE,144,8.0,12.3,23,0.00,,,-99.99,FreeWX-Wi 1.01,2013-04-21 15:11:00,
2013-04-21 11:16:00,68.7,29.5,30.00,SE,146,7.0,10.5,23,0.00,,,-99.99,FreeWX-Wi 1.01,2013-04-21 15:16:00,
2013-04-21 11:21:00,68.7,29.5,30.00,SSE,148,8.0,12.8,23,0.00,,,-99.99,FreeWX-Wi 1.01,2013-04-21 15:21:00,
2013-04-21 11:26:00,68.7,29.5,30.00,SSE,150,8.0,11.0,23,0.00,,,-99.99,FreeWX-Wi 1.01,2013-04-21 15:26:00,
2013-04-21 11:31:00,69.6,30.2,30.00,SSE,151,8.0,11.0,23,0.00,,,-99.99,FreeWX-Wi 1.01,2013-04-21 15:31:00,
2013-04-21 11:36:00,70.2,30.6,30.00,SSE,152,8.0,15.4,23,0.00,,,-99.99,FreeWX-Wi 1.01,2013-04-21 15:36:00,
2013-04-21 11:41:00,70.5,30.9,30.00,SSE,150,8.0,12.8,23,0.00,,,-99.99,FreeWX-Wi 1.01,2013-04-21 15:41:00,
2013-04-21 11:46:00,71.1,31.5,30.00,SSE,151,8.0,15.0,23,0.00,,,-99.99,FreeWX-Wi 1.01,2013-04-21 15:46:00,
2013-04-21 11:51:00,71.6,30.7,30.06,SSE,154,8.0,12.8,22,0.00,,,-99.99,FreeWX-Wi 1.01,2013-04-21 15:51:00,
2013-04-21 11:56:00,71.8,30.9,30.06,SSE,150,8.0,13.2,22,0.00,,,-99.99,FreeWX-Wi 1.01,2013-04-21 15:56:00,